map of KJHN home
Great Circle Mapper logo
KJHN - Airport
Location
City:  Johnson, Kansas, United States
Name:Stanton County Municipal Airport
ICAO:KJHN
FAA LID:JHN

Details
Type:Airport (Airfield)
Use:Public/Civil
Latitude:3735'07"N (37.585389)
Longitude:10143'56"W (-101.732305)
Datum:WGS 1984
Elevation:3325 ft (1013 m)
Variation:6.44E (WMM2015 magnetic declination)
-0.10 annual change
Runways:2
Longest:5200 × 75 ft (1585 × 23 m), paved

Time
Time Zone:UTC-7 (DST-6)
Local Time:

Weather
METAR:KJHN 290515Z AUTO 35012G18KT 10SM TS CLR 22/17 A3013 RMK AO2 LTG DSNT SW THRU N T02180172

Related Locations
Nearby:
Farthest:RRG: 10914 mi / 17565 km
Plaine Corail, Rodrigues Island, MU

Find:

   beyond  
but within

Other Information
Maps:
NOTAMs:
Links:
Sources:

  
flag of United States
flag of Kansas
  

Sectional Chart

Flight Planning
at skyvector.com

Satellite Image

Google Maps Satellite view

 

Copyright © 2004-2016 Karl L. Swartz. All rights reserved.
The Great Circle Mapper name and logo are trademarks of the Great Circle Mapper.
All other trademarks mentioned herein belong to their respective owners.
Please see credits for attibutions and further copyright information.

  Follow gcmap on Facebook Follow gcmap on Twitter Follow gcmap on Google+ GCmap on LinkedIn

hCard Microformat

Geo Microformat